Home   Weather   Frankenthal (Pfalz)   Past weeks

Flag for Germany Past Weather in Frankenthal (Pfalz), Rhineland-Palatinate, Germany — Yesterday and Last 2 Weeks

Now
30 °F

Clear.


Feels Like: 30 °F
Forecast: 29 / 41 °F
Wind: 2 mph from North

Location: Mannheim City

Current Time: Dec 8, 2016 at 9:18:32 pm

Latest Report: Dec 8, 2016 at 8:50 pm


Visibility: 6 mi

Pressure: 30.48 "Hg

Humidity: 100%

Dew Point: 30 °F

Location of Frankenthal (Pfalz)Location

Past Weather in Frankenthal (Pfalz) — Graph

°F

Frankenthal (Pfalz) Temperature Yesterday

Maximum temperature yesterday: 32 °F (at 3:20 pm)
Minimum temperature yesterday: 28 °F (at 5:20 am)
Average temperature yesterday: 31 °F

High & Low Weather Summary for the Past Weeks

 TemperatureHumidityPressure
High54 °F (Nov 24, 11:20 am)100% (Nov 23, 7:20 pm)30.60 "Hg (Nov 23, 7:20 pm)
Low18 °F (Dec 4, 8:20 am)45% (Nov 29, 1:20 pm)29.98 "Hg (Nov 24, 5:20 am)
Average37 °F85%30.32 "Hg
* Reported Nov 23 7:20 pm — Dec 8 7:50 pm, Frankenthal (Pfalz), Weather by CustomWeather, © 2016

Note: Actual official high and low records may vary slightly from our data, if they occured in-between our weather recording intervals... More about our weather records

Advertising

Frankenthal (Pfalz) Weather History for the Previous 24 Hours

Scroll right to see more
 ConditionsComfort  
Time TempWeatherWind HumidityBarometerVisibility
7:50 pm
Thu, Dec 8
34 °FClear.2 mph93%30.48 "Hg10 mi
6:50 pm36 °FClear.6 mph87%30.48 "Hg10 mi
6:20 pm36 °FClear.3 mph87%30.48 "Hg10 mi
5:50 pm36 °FPassing clouds.5 mph87%30.48 "HgN/A
5:20 pm36 °FClear.5 mph87%30.48 "Hg10 mi
4:50 pm36 °FClear.3 mph87%30.48 "Hg10 mi
4:20 pm36 °FPassing clouds.5 mph87%30.48 "HgN/A
3:50 pm37 °FPassing clouds.6 mph81%30.51 "HgN/A
3:20 pm37 °FPassing clouds.6 mph81%30.48 "HgN/A
2:50 pm37 °FPassing clouds.7 mph81%30.48 "HgN/A
2:20 pm36 °FPassing clouds.8 mph87%30.48 "HgN/A
1:50 pm36 °FPassing clouds.7 mph87%30.48 "HgN/A
1:20 pm34 °FPartly sunny.7 mph93%30.51 "Hg6 mi
12:50 pm32 °FPartly sunny.7 mph100%30.51 "Hg4 mi
12:20 pm32 °FLow clouds.8 mph100%30.54 "Hg4 mi
11:50 am30 °FIce fog.6 mph100%30.54 "Hg2 mi
11:20 am30 °FIce fog.5 mph100%30.57 "Hg2 mi
10:50 am30 °FIce fog.5 mph100%30.57 "Hg2 mi
10:20 am30 °FIce fog.5 mph100%30.57 "Hg3 mi
9:50 am30 °FIce fog.6 mph100%30.57 "Hg2 mi
9:20 am30 °FIce fog.7 mph100%30.57 "Hg1 mi
8:50 am30 °FIce fog.7 mph100%30.57 "Hg1 mi
8:20 am30 °FIce fog.5 mph100%30.57 "Hg1 mi
7:50 am30 °FIce fog.7 mph100%30.57 "Hg1 mi
7:20 am30 °FIce fog.7 mph100%30.57 "Hg2 mi
6:50 am30 °FIce fog.7 mph100%30.57 "Hg2 mi
6:20 am30 °FIce fog.5 mph100%30.57 "Hg2 mi
5:50 am30 °FIce fog.6 mph100%30.57 "Hg2 mi
Weather by CustomWeather, © 2016

See weather overviewHow to use our weather pages